STARLINK-32780 (62746 NORAD) Tracking and Keplerian Element Data

This shows tracking and keplerian element data for the satellite.

Feedback or suggestion? Click here.




ElementValue
Catalog62746
NameSTARLINK-32780
Epoch Orbit5108
Epoch Day354.11768984
Epoch Year2025
RAAN244.1348
Inclination42.9995
Eccentricity0.0001359
Argument of Perigee263.2801
Mean Anonmoly96.7895
Mean Motion15.2757857
Decay Rate9.131E-05
L11 62746U 25014M 25354.11768984 .00009131 00000+0 34093-3 0 9995
L22 62746 42.9995 244.1348 0001359 263.2801 96.7895 15.27578570 51086



Live tracking and technical data element details for STARLINK-32780 (NORAD 62746). STARLINK-32780 can be tracked NOW for your location showing map with azimuth and elevation plus other details from your city location.







IsCatalogInMostPopularTable: catalog: 62746, numindb: 254
Update: records affected: 1



GetName: 62746 STARLINK-32780

Hit Count: updated at: Thu, 14 May 2026 20:12:04 GMT